Time,TemperatureF,DewpointF,PressureIn,WindDirection,WindDirectionDegrees,WindSpeedMPH,WindSpeedGustMPH,Humidity,HourlyPrecipIn,Conditions,Clouds,dailyrainin,SoftwareType,DateUTC
2013-01-06 13:12:00,35.0,31.0,-100.00,WSW,257,22.0,27.0,84,-99.99,,,-99.99,,2013-01-06 21:12:00,
2013-01-06 13:33:00,35.0,31.0,-100.00,West,259,24.0,31.0,85,-99.99,,,-99.99,,2013-01-06 21:33:00,
2013-01-06 13:42:00,35.0,31.0,-100.00,West,259,24.0,31.0,85,-99.99,,,-99.99,,2013-01-06 21:42:00,
2013-01-06 13:52:00,36.0,32.0,-100.00,West,260,22.0,34.0,84,-99.99,,,-99.99,,2013-01-06 21:52:00,
2013-01-06 14:02:00,36.0,33.0,-100.00,West,261,20.0,27.0,87,-99.99,,,-99.99,,2013-01-06 22:02:00,
2013-01-06 14:12:00,35.0,32.0,-100.00,WSW,258,21.0,31.0,89,-99.99,,,-99.99,,2013-01-06 22:12:00,
2013-01-06 14:22:00,36.0,33.0,-100.00,WSW,255,20.0,28.0,87,-99.99,,,-99.99,,2013-01-06 22:22:00,
2013-01-06 14:32:00,36.0,31.0,-100.00,WSW,253,21.0,32.0,83,-99.99,,,-99.99,,2013-01-06 22:32:00,
2013-01-06 14:42:00,35.0,32.0,-100.00,WSW,249,17.0,30.0,87,-99.99,,,-99.99,,2013-01-06 22:42:00,
2013-01-06 14:52:00,35.0,32.0,-100.00,WSW,258,20.0,28.0,90,-99.99,,,-99.99,,2013-01-06 22:52:00,
2013-01-06 15:02:00,35.0,33.0,-100.00,WSW,257,18.0,29.0,91,-99.99,,,-99.99,,2013-01-06 23:02:00,
2013-01-06 15:12:00,35.0,33.0,-100.00,WSW,256,18.0,26.0,91,-99.99,,,-99.99,,2013-01-06 23:12:00,
2013-01-06 15:22:00,35.0,32.0,-100.00,West,262,19.0,25.0,89,-99.99,,,-99.99,,2013-01-06 23:22:00,
2013-01-06 15:32:00,35.0,32.0,-100.00,WSW,257,19.0,29.0,90,-99.99,,,-99.99,,2013-01-06 23:32:00,
2013-01-06 15:42:00,35.0,33.0,-100.00,WSW,257,21.0,28.0,91,-99.99,,,-99.99,,2013-01-06 23:42:00,
2013-01-06 15:52:00,34.0,32.0,-100.00,WSW,257,18.0,28.0,91,-99.99,,,-99.99,,2013-01-06 23:52:00,
2013-01-06 16:02:00,34.0,32.0,-100.00,WSW,255,18.0,26.0,93,-99.99,,,-99.99,,2013-01-07 00:02:00,
2013-01-06 16:12:00,33.0,32.0,-100.00,WSW,257,17.0,25.0,97,-99.99,,,-99.99,,2013-01-07 00:12:00,
2013-01-06 16:22:00,33.0,32.0,-100.00,WSW,258,16.0,25.0,97,-99.99,,,-99.99,,2013-01-07 00:22:00,
2013-01-06 16:32:00,32.0,32.0,-100.00,WSW,257,14.0,20.0,98,-99.99,,,-99.99,,2013-01-07 00:32:00,
2013-01-06 16:42:00,33.0,32.0,-100.00,WSW,258,14.0,24.0,97,-99.99,,,-99.99,,2013-01-07 00:42:00,
2013-01-06 16:52:00,33.0,31.0,-100.00,West,259,13.0,19.0,94,-99.99,,,-99.99,,2013-01-07 00:52:00,
2013-01-06 17:02:00,33.0,31.0,-100.00,West,263,10.0,18.0,92,-99.99,,,-99.99,,2013-01-07 01:02:00,
2013-01-06 17:12:00,33.0,30.0,-100.00,West,268,14.0,19.0,90,-99.99,,,-99.99,,2013-01-07 01:12:00,
2013-01-06 17:22:00,33.0,30.0,-100.00,West,270,14.0,21.0,90,-99.99,,,-99.99,,2013-01-07 01:22:00,
2013-01-06 17:32:00,32.0,29.0,-100.00,West,260,14.0,21.0,90,-99.99,,,-99.99,,2013-01-07 01:32:00,
2013-01-06 17:42:00,32.0,29.0,-100.00,WSW,255,17.0,26.0,90,-99.99,,,-99.99,,2013-01-07 01:42:00,
2013-01-06 17:52:00,32.0,30.0,-100.00,WSW,250,17.0,27.0,91,-99.99,,,-99.99,,2013-01-07 01:52:00,
2013-01-06 18:02:00,32.0,30.0,-100.00,WSW,250,17.0,25.0,93,-99.99,,,-99.99,,2013-01-07 02:02:00,
2013-01-06 18:12:00,32.0,30.0,-100.00,WSW,248,17.0,27.0,94,-99.99,,,-99.99,,2013-01-07 02:12:00,
2013-01-06 18:22:00,32.0,31.0,-100.00,WSW,250,15.0,24.0,96,-99.99,,,-99.99,,2013-01-07 02:22:00,
2013-01-06 18:32:00,32.0,32.0,-100.00,WSW,255,17.0,27.0,98,-99.99,,,-99.99,,2013-01-07 02:32:00,
2013-01-06 18:42:00,32.0,32.0,-100.00,WSW,247,13.0,20.0,99,-99.99,,,-99.99,,2013-01-07 02:42:00,
2013-01-06 18:52:00,32.0,32.0,-100.00,WSW,243,13.0,21.0,100,-99.99,,,-99.99,,2013-01-07 02:52:00,
2013-01-06 19:02:00,32.0,32.0,-100.00,WSW,247,11.0,26.0,100,-99.99,,,-99.99,,2013-01-07 03:02:00,
2013-01-06 19:12:00,32.0,32.0,-100.00,SW,227,13.0,25.0,100,-99.99,,,-99.99,,2013-01-07 03:12:00,
2013-01-06 19:22:00,31.0,31.0,-100.00,WSW,238,12.0,23.0,100,-99.99,,,-99.99,,2013-01-07 03:22:00,
2013-01-06 19:32:00,32.0,32.0,-100.00,WSW,255,11.0,17.0,100,-99.99,,,-99.99,,2013-01-07 03:32:00,
2013-01-06 19:42:00,32.0,32.0,-100.00,WSW,255,11.0,17.0,100,-99.99,,,-99.99,,2013-01-07 03:42:00,
2013-01-06 19:52:00,31.0,31.0,-100.00,WSW,245,12.0,18.0,100,-99.99,,,-99.99,,2013-01-07 03:52:00,
2013-01-06 20:02:00,31.0,31.0,-100.00,WSW,241,9.0,15.0,100,-99.99,,,-99.99,,2013-01-07 04:02:00,
2013-01-06 20:12:00,31.0,31.0,-100.00,WSW,249,11.0,19.0,100,-99.99,,,-99.99,,2013-01-07 04:12:00,
2013-01-06 20:22:00,31.0,31.0,-100.00,WSW,249,11.0,19.0,100,-99.99,,,-99.99,,2013-01-07 04:22:00,
2013-01-06 20:32:00,31.0,31.0,-100.00,WSW,246,10.0,15.0,100,-99.99,,,-99.99,,2013-01-07 04:32:00,
2013-01-06 20:42:00,31.0,31.0,-100.00,WSW,237,8.0,14.0,100,-99.99,,,-99.99,,2013-01-07 04:42:00,
2013-01-06 20:52:00,31.0,31.0,-100.00,WSW,245,9.0,16.0,100,-99.99,,,-99.99,,2013-01-07 04:52:00,
2013-01-06 21:02:00,32.0,32.0,-100.00,SW,232,9.0,17.0,100,-99.99,,,-99.99,,2013-01-07 05:02:00,
2013-01-06 21:12:00,32.0,32.0,-100.00,WSW,243,9.0,17.0,100,-99.99,,,-99.99,,2013-01-07 05:12:00,
2013-01-06 21:22:00,32.0,32.0,-100.00,WSW,247,9.0,16.0,100,-99.99,,,-99.99,,2013-01-07 05:22:00,
2013-01-06 21:32:00,32.0,32.0,-100.00,WSW,255,10.0,17.0,100,-99.99,,,-99.99,,2013-01-07 05:32:00,
2013-01-06 21:42:00,32.0,32.0,-100.00,WSW,241,7.0,15.0,100,-99.99,,,-99.99,,2013-01-07 05:42:00,
2013-01-06 21:52:00,32.0,32.0,-100.00,SW,219,5.0,11.0,100,-99.99,,,-99.99,,2013-01-07 05:52:00,
2013-01-06 22:02:00,32.0,32.0,-100.00,WSW,242,5.0,13.0,100,-99.99,,,-99.99,,2013-01-07 06:02:00,
2013-01-06 22:12:00,32.0,32.0,-100.00,SSW,202,5.0,7.0,100,-99.99,,,-99.99,,2013-01-07 06:12:00,
2013-01-06 22:22:00,32.0,32.0,-100.00,WSW,237,8.0,20.0,100,-99.99,,,-99.99,,2013-01-07 06:22:00,
2013-01-06 22:32:00,32.0,32.0,-100.00,WSW,253,9.0,17.0,100,-99.99,,,-99.99,,2013-01-07 06:32:00,
2013-01-06 22:42:00,31.0,31.0,-100.00,West,261,6.0,12.0,100,-99.99,,,-99.99,,2013-01-07 06:42:00,
2013-01-06 22:52:00,31.0,31.0,-100.00,West,261,6.0,12.0,100,-99.99,,,-99.99,,2013-01-07 06:52:00,
2013-01-06 23:02:00,31.0,31.0,-100.00,WSW,256,8.0,17.0,100,-99.99,,,-99.99,,2013-01-07 07:02:00,
2013-01-06 23:11:00,31.0,31.0,-100.00,WSW,255,9.0,14.0,100,-99.99,,,-99.99,,2013-01-07 07:11:00,
2013-01-06 23:22:00,31.0,31.0,-100.00,WSW,248,5.0,15.0,100,-99.99,,,-99.99,,2013-01-07 07:22:00,
2013-01-06 23:32:00,31.0,31.0,-100.00,WSW,255,6.0,14.0,100,-99.99,,,-99.99,,2013-01-07 07:32:00,
2013-01-06 23:42:00,31.0,31.0,-100.00,WSW,257,10.0,18.0,100,-99.99,,,-99.99,,2013-01-07 07:42:00,
2013-01-06 23:52:00,32.0,32.0,-100.00,West,264,12.0,22.0,100,-99.99,,,-99.99,,2013-01-07 07:52:00,